Weather in Posyolok Volodarskogo

Russia / Moscow Oblast     55°30′09″N   37°56′35″E
temp.,
°C
wind,
m/s
gust,
m/s
humid.,
%
clouds,
%
prec.,
mm/h
press.,
hPa
HPBL,
m
12 may, wed
wed1200:00+12s229349 0.0 102627
03:00+9se33927 0.0 102641
06:00+10se229086 0.0 102775
09:00+14ne227244 0.0 1026397
12:00+17ene3771100 0.1 1023680
15:00+18e71273100 2.2 10211318
18:00+13ese61595100 2.1 1019722
21:00+13ese8149395 3.7 1019880
13 may, thu
thu1300:00+8s37961 0.4 1021179
03:00+6ese229686 0.4 102125
06:00+8e25955 0.0 1020136
09:00+13se467530 0.0 1019524
12:00+17ese566181 0.0 1018992
15:00+18sse466397 0.0 10151100
18:00+12sw9138585 0.8 1016712
21:00+9ssw369398 0.8 1016140
14 may, fri
fri1400:00+8s3393100 0.0 101748
03:00+8sse2394100 0.0 101734
06:00+9se249338 0.0 1018126
09:00+14se4683100 0.0 1017527
12:00+19se5769100 0.0 10161033
15:00+20sse6974100 1.9 10141109
18:00+18sse4984100 6.7 1013206
21:00+15sse31192100 9.5 1011195
15 may, sat
sat1500:00+15sse3693100 0.1 101196
03:00+14se3493100 1.9 101163
06:00+15sse61393100 1.1 1012431
09:00+18ese2677100 1.1 1009369
12:00+16ese3894100 2.5 1010215
15:00+20sse68760 4.4 1009802
18:00+20ssw61079100 0.4 1008871
21:00+15ssw512895 2.2 1009322
16 may, sun
sun1600:00+13ssw411952 0.0 1010279
03:00+12ssw4109771 0.0 1011280
06:00+12wsw599092 0.0 1013481
09:00+16sw68775 0.0 1014790
12:00+19wsw566161 0.0 10141650
15:00+19wsw45618 0.1 10151403
18:00+19wsw23665 0.0 10151004
21:00+14n117899 0.0 101710